Weather Service Report


260 
ASUS44 KLIX 051611
RWRLIX
NEW ORLEANS REGIONAL WEATHER ROUNDUP
NATIONAL WEATHER SERVICE NEW ORLEANS LA
1100 AM CDT THU MAY 05 2016

NOTE: "FAIR" INDICATES FEW OR NO CLOUDS BELOW 12,000 FEET WITH NO
      SIGNIFICANT WEATHER AND/OR OBSTRUCTIONS TO VISIBILITY.
      SKY/WX - SKY CONDITION AND SIGNIFICANT WEATHER.
      TMP - AIR TEMPERATURE.     DP    - DEWPOINT TEMPERATURE.
      RH  - RELATIVE HUMIDITY.   PRES  - PRESSURE.
      HI  - HEAT INDEX.          WCI   - WIND CHILL INDEX.

*  THESE STATIONS ARE NOT NWS OR FAA STATIONS AND ARE NOT UNDER
   NWS QUALITY CONTROL. 

LAZ038-040-048-061>063-065>067-069-051700-
SOUTHEAST LOUISIANA
  
CITY           SKY/WX    TMP DP  RH WIND       PRES   REMARKS
N.O. AUDUBON     N/A     79  57  47 MISG        N/A                   
N.O. INTL ARPT SUNNY     75  57  53 N12       29.96R                  
N.O. LAKEFRONT   N/A     72  58  61 N9        29.96S                  
N.O. DOWNTOWN*   N/A     74  55  51 N7        29.96S                  
RESERVE*         N/A     78  51  38 NW9       29.96S                  
SLIDELL        SUNNY     76  55  48 N8        29.94F                  
BATON ROUGE    SUNNY     76  46  34 N6        29.97F                  
BOOTHVILLE     SUNNY     73  58  59 N9G16     29.94S                  
BELLE CHASSE   SUNNY     77  51  40 N8G16     29.95R                  
BOGALUSA*        N/A     73  53  48 NE7       29.98S                  
GALLIANO*      SUNNY     77  59  53 N9        29.95S                  
NEW ROADS*       N/A     73  49  42 N10       29.99S                  
GONZALES*        N/A     75  49  39 N10       29.96S                  
HAMMOND*       SUNNY     75  45  33 N8        29.96F                  
HOUMA*         NOT AVBL                                               
PORT FOURCHON* SUNNY     73  59  60 VRB7G14   29.96R                  

$$

MSZ070-080>082-051700-
SOUTHERN MISSISSIPPI
  
CITY           SKY/WX    TMP DP  RH WIND       PRES   REMARKS
MCCOMB         SUNNY     72  47  40 N10G20    29.98S                  
GULFPORT       SUNNY     74  52  46 N7        29.93S                  
BILOXI         SUNNY     74  54  49 N8        29.92F                  
PASCAGOULA     SUNNY     74  54  49 N9        29.93S                  
STENNIS ARPT*  SUNNY     73  48  40 N9        29.94F                  

$$

COASTAL OBSERVATIONS
LAKE AND NEARSHORE STATIONS
  
STATION/POSITION TIME  TEMP    WIND        PRES    WAVE
                       AIR SEA DIR/SP/G            HT/PER
                 (UTC) (F)     (DEG/KT/KT) (MB)    (FT/S)
PASCAGOULA       1500   71      10/ 10/ 12 1012.8
WAVELAND YACHT   1500   68 71  360/  5/  6 1013.5
GRAND ISLE       1500   71 74  360/ 11/ 14 1013.6
SOUTHWEST PASS   1500          330/ 14/ 16   N/A
NEW CANAL        1500   69 73   10/  8/ 10 1013.5
SHELL BEACH      1500   69 72  360/ 11/ 12 1013.9

OFFSHORE STATIONS
  
STATION/POSITION TIME  TEMP    WIND        PRES    WAVE
                       AIR SEA DIR/SP/G            HT/PER
                 (UTC) (F)     (DEG/KT/KT) (MB)    (FT/S)
64 S DAUPHIN ISL 1500   72 75  340/ 12/ 16 1012.6

$$

  


261 
ASUS44 KLIX 051611
RWRLA 
LOUISIANA WEATHER ROUNDUP
NATIONAL WEATHER SERVICE NEW ORLEANS LA
1100 AM CDT THU MAY 05 2016

NOTE: "FAIR" INDICATES FEW OR NO CLOUDS BELOW 12,000 FEET WITH NO
      SIGNIFICANT WEATHER AND/OR OBSTRUCTIONS TO VISIBILITY.
      SKY/WX - SKY CONDITION AND SIGNIFICANT WEATHER.
      TMP - AIR TEMPERATURE.    DP   - DEWPOINT TEMPERATURE.
      RH  - RELATIVE HUMIDITY.  PRES - PRESSURE.
      HX  - HEAT INDEX.         WCI  - WIND CHILL INDEX.

*  THESE STATIONS ARE NOT NWS OR FAA STATIONS AND ARE NOT UNDER
   NWS QUALITY CONTROL.

LAZ040-048-061>063-065-066-069-051700-
SOUTHEAST LOUISIANA
  
CITY           SKY/WX    TMP DP  RH WIND       PRES   REMARKS
N.O. AUDUBON     N/A     79  57  47 MISG        N/A                   
N.O. INTL ARPT SUNNY     75  57  53 N12       29.96R                  
N.O. LAKEFRONT   N/A     72  58  61 N9        29.96S                  
N.O. DOWNTOWN* FAIR      74  55  51 N7        29.96S                  
RESERVE*       FAIR      78  51  38 NW9       29.96S                  
SLIDELL        SUNNY     76  55  48 N8        29.94F                  
BATON ROUGE    SUNNY     76  46  34 N6        29.97F                  
BOOTHVILLE     SUNNY     73  58  59 N9G16     29.94S                  
BELLE CHASSE   SUNNY     77  51  40 N8G16     29.95R                  
BOGALUSA*      FAIR      73  53  48 NE7       29.98S                  
GALLIANO*      SUNNY     77  59  53 N9        29.95S                  
NEW ROADS*     FAIR      73  49  42 N10       29.99S                  
GONZALES*      FAIR      75  49  39 N10       29.96S                  
HAMMOND*       SUNNY     75  45  33 N8        29.96F                  
HOUMA*         NOT AVBL                                               
PORT FOURCHON* SUNNY     73  59  60 VRB7G14   29.96R                  

$$

LAZ041-044-053-054-051700-
SOUTHWEST LOUISIANA
  
CITY           SKY/WX    TMP DP  RH WIND       PRES   REMARKS
LAKE CHARLES   SUNNY     76  48  37 NE8       30.01S                  
LAFAYETTE      SUNNY     76  50  40 NE12      29.99S                  
PATTERSON      NOT AVBL                                               
SALT POINT       N/A     77  56  48 VRB5      29.96S                  
NEW IBERIA     SUNNY     76  49  38 N14       29.99S                  
CHENAULT AIRPK SUNNY     75  48  38 N7        30.02                   

$$

LAZ027-028-051700-
CENTRAL LOUISIANA
  
CITY           SKY/WX    TMP DP  RH WIND       PRES   REMARKS
FORT POLK      SUNNY     73  45  36 N10       30.02S                  
ALEXANDRIA INT SUNNY     75  45  34 N9G16     30.00S                  
ALEXANDRIA     SUNNY     76  46  34 NE8G20    30.01S                  

$$

LAZ001-002-051700-
NORTHWEST LOUISIANA
  
CITY           SKY/WX    TMP DP  RH WIND       PRES   REMARKS
SHREVEPORT     SUNNY     73  46  38 N8        30.05S                  
BARKSDALE AFB  SUNNY     72  46  40 N5        30.05S                  
DTN SHREVEPORT SUNNY     72  48  42 N7        30.06R                  

$$

LAZ014-016-051700-
NORTHEAST LOUISIANA
  
CITY           SKY/WX    TMP DP  RH WIND       PRES   REMARKS
MONROE         SUNNY     72  47  40 N12       30.03S                  
TALLULAH       SUNNY     73  43  33 N10G16    30.01S                  

$$

  

Return to Home page


Western Regional Climate Center, wrcc@dri.edu